Els Cortals - Les Guilleries





Hora UTC 02:55
Temperatura 18.5 ºC
Humedad 49.0 %
Presión 999.5 hPa
Pluja 0.0 mm
Velocidad viento 0.0 km/h
Dirección viento W

Datos diarios 2022-05-23



Hora UTC (invierno +1h; verano +2h)
Temperatura (ºC) Humedad (%) Presión (hPa) Velocidad viento (km/h) Precipitación (mm)
Hora UTC Aire Humedad Presión Vel. Dir. Vel. Max Dir. Intent. máx 5 min.
00:05 20.7 30.0 1001.3 0.0 SW 0.0 0.0
00:10 20.8 30.0 1001.2 4.8 SSW 12.9 0.0
00:15 21.1 30.0 1001.1 9.7 NNW 12.9 0.0
00:20 21.0 30.0 1001.1 1.6 NW 11.3 0.0
00:25 20.8 32.0 1001.3 0.0 WSW 9.7 0.0
00:30 20.9 32.0 1001.4 3.2 SW 9.7 0.0
00:35 21.1 32.0 1001.2 6.4 SW 9.7 0.0
00:40 21.2 32.0 1000.9 11.3 WNW 12.9 0.0
00:45 21.2 33.0 1000.9 0.0 NNW 16.1 0.0
00:50 21.1 34.0 1000.6 0.0 NNW 11.3 0.0
00:55 20.8 35.0 1000.6 1.6 NW 9.7 0.0
01:00 20.8 37.0 1000.2 3.2 NW 11.3 0.0
01:05 20.7 37.0 999.7 8.0 NNW 11.3 0.0
01:10 20.6 40.0 1000.3 0.0 W 11.3 0.0
01:15 20.6 39.0 1000.6 8.0 WSW 16.1 0.0
01:20 21.1 40.0 1000.4 3.2 S 20.9 0.0
01:25 21.3 40.0 1000.6 1.6 S 11.3 0.0
01:30 21.3 41.0 1000.5 0.0 S 6.4 0.0
01:35 21.3 41.0 1000.4 0.0 S 6.4 0.0
01:40 21.2 41.0 1000.4 6.4 NW 8.0 0.0
01:45 21.0 41.0 1000.3 1.6 N 11.3 0.0
01:50 20.8 42.0 1000.3 3.2 NNW 11.3 0.0
01:55 20.6 43.0 1000.2 3.2 W 9.7 0.0
02:00 20.2 43.0 1000.3 0.0 NNW 8.0 0.0
02:05 19.9 43.0 1000.3 0.0 W 11.3 0.0
02:10 19.8 43.0 1000.4 0.0 W 11.3 0.0
02:15 19.6 44.0 1000.3 0.0 W 6.4 0.0
02:20 19.3 45.0 1000.1 0.0 NW 8.0 0.0
02:25 19.0 46.0 1000.1 3.2 NW 8.0 0.0
02:30 18.7 47.0 1000.1 1.6 NW 8.0 0.0
02:35 18.6 48.0 999.9 0.0 NW 8.0 0.0
02:40 18.5 49.0 999.7 0.0 WNW 8.0 0.0
02:45 18.4 49.0 999.6 1.6 WNW 8.0 0.0
02:50 18.5 49.0 999.5 0.0 W 8.0 0.0
02:55 18.5 49.0 999.5 0.0 W 6.4 0.0
Máxima 21.3 49.0 1001.4 11.3 WNW 20.9 0.0
Mínima 18.4 30.0 999.5
Total 0.0